Theta_e
310 315 316 316 315 313 313 313 313 312 312 312 312 313 313 312 311 311 312 311 310 311 312 312 312 311 311 311 311 310 311 311 310 311 311 311 312 312 313 314 314 314 316 316 316 315 315 315 315 315 315 315 314 314 314 314 314 314 314 314 314 314 313 313 312 312 312 311 310 309 309 309 308 308 307 307 306 305 305 304 303 303 302 302 301 301
311 314 316 316 314 313 313 312 311 311 312 312 313 313 312 312 312 311 312 312 310 310 311 312 312 311 311 311 311 311 311 311 311 311 312 312 312 313 313 313 314 315 315 315 316 316 315 315 315 315 315 315 315 314 314 314 314 314 313 314 314 313 313 313 313 312 312 312 312 311 311 310 309 309 308 308 308 307 306 304 303 303 302 302 301 301
313 314 314 313 312 312 313 311 311 312 312 313 313 312 313 312 312 311 312 312 310 311 314 315 313 311 311 312 311 311 311 311 312 312 312 313 313 313 313 314 314 314 314 315 316 316 316 315 315 315 315 315 315 314 313 313 313 313 313 313 313 313 313 313 312 312 312 312 311 311 311 310 309 309 308 308 308 307 306 305 304 303 302 302 301 301
316 317 313 310 310 312 313 312 312 312 312 314 313 313 313 312 312 313 313 314 312 312 315 315 312 310 311 311 311 310 310 311 312 312 313 312 313 313 314 314 314 313 314 315 316 316 316 315 315 315 315 315 314 314 313 313 313 313 313 313 313 313 313 312 312 311 311 311 310 310 309 308 308 308 308 307 306 306 305 305 304 304 303 302 301 301
316 316 311 309 311 312 313 313 313 313 313 313 314 313 313 313 313 313 313 314 313 312 314 313 311 312 313 312 313 311 310 310 310 311 312 312 313 314 313 313 313 314 315 315 316 316 316 316 315 315 315 315 314 314 313 313 313 313 313 313 313 312 312 312 311 311 310 310 309 308 308 306 306 306 306 306 306 306 306 306 305 304 303 302 302 301
313 311 310 312 314 313 313 313 314 315 313 312 314 314 313 313 313 313 314 313 313 316 315 313 313 316 317 315 315 315 312 311 310 309 310 310 312 313 312 313 314 315 315 315 315 316 316 316 316 316 315 315 315 314 313 313 313 313 313 313 312 312 312 312 311 311 310 310 310 309 308 307 306 306 306 307 308 308 307 307 306 305 304 303 303 302
313 311 311 314 316 316 314 313 314 314 313 313 317 319 314 312 313 314 314 313 317 319 315 314 316 316 316 316 317 318 316 314 312 311 310 309 311 311 312 314 315 315 315 316 316 316 317 316 316 316 316 316 315 314 314 313 313 313 313 312 312 312 312 311 311 310 310 310 310 310 309 309 308 308 309 309 309 308 308 307 307 306 305 304 303 303
314 312 312 313 313 316 315 314 314 313 313 315 317 321 319 316 315 314 313 314 317 317 314 315 316 316 315 314 316 317 316 316 314 313 312 310 310 312 313 315 315 316 316 316 317 317 317 317 317 316 316 316 315 315 314 313 313 312 313 313 312 312 311 311 310 310 310 310 310 310 309 309 309 309 310 310 309 309 308 307 306 306 305 304 303 303
313 314 315 314 312 314 314 314 316 313 313 317 315 316 319 317 316 315 316 316 315 315 314 314 314 317 318 314 315 315 314 316 314 313 313 311 311 312 313 315 316 316 317 316 317 317 317 317 316 316 316 315 315 315 314 314 313 313 312 313 312 312 312 311 311 310 310 310 310 310 309 309 309 309 309 308 308 308 308 307 306 305 305 304 303 303
311 313 312 314 315 314 313 314 317 317 315 314 313 314 317 318 318 317 317 317 318 317 316 315 314 317 318 316 317 315 314 317 315 313 312 310 310 311 313 316 316 317 317 317 317 317 317 316 316 316 315 316 315 314 314 314 313 313 312 312 312 312 312 311 311 310 310 310 309 309 309 309 309 309 308 308 307 307 307 307 306 306 305 304 304 303
309 308 308 311 313 312 313 312 310 313 311 309 313 318 320 320 319 319 320 318 317 317 317 318 316 315 317 318 318 318 317 317 316 315 314 313 311 311 314 316 316 317 317 317 317 316 316 316 316 316 315 315 315 314 314 314 314 313 312 312 312 312 311 311 311 310 310 310 309 310 309 309 309 309 308 308 308 308 307 307 307 306 306 305 304 304
309 308 310 312 310 309 313 312 307 307 307 308 317 321 319 320 320 320 321 318 316 318 319 319 316 314 317 316 315 317 316 315 315 317 321 321 315 312 315 317 316 317 316 316 316 315 315 315 314 315 315 315 315 314 314 314 314 314 313 312 311 311 311 311 311 310 310 310 310 309 309 309 309 309 309 309 309 309 308 308 307 306 306 305 304 304
314 314 312 311 310 309 313 315 313 311 309 311 317 317 315 319 319 319 320 317 317 319 316 314 314 313 314 315 314 316 317 317 314 312 315 319 315 312 315 316 315 316 316 315 315 314 314 314 313 314 314 314 314 314 314 314 314 313 313 313 312 311 311 311 310 310 310 310 310 309 309 309 309 308 309 309 309 309 309 308 308 307 307 306 305 305
318 318 312 309 311 311 312 314 315 315 313 312 315 316 316 318 318 319 321 318 317 319 314 311 313 314 314 317 317 315 314 314 311 308 309 311 312 313 315 315 314 315 315 314 314 312 312 313 313 313 313 314 314 313 313 314 314 313 313 313 313 312 311 311 310 310 310 310 310 309 309 309 308 308 309 309 309 309 309 308 308 308 308 307 306 306
316 318 316 314 315 313 311 312 315 318 315 311 314 318 317 319 322 321 323 321 318 319 315 310 314 319 318 317 318 316 312 310 309 310 310 309 310 312 312 313 314 314 315 314 313 312 313 313 313 313 314 314 314 314 314 313 313 314 313 313 313 312 311 311 310 310 310 310 310 309 309 309 309 309 309 309 309 309 309 308 308 308 308 307 307 306
315 318 319 314 311 312 312 312 313 317 316 312 315 317 314 318 322 319 320 321 317 317 315 312 316 320 316 313 315 315 311 309 309 309 308 308 311 311 311 314 314 314 314 313 313 313 313 314 314 313 313 313 314 314 314 314 314 313 313 313 313 312 312 311 310 310 310 310 309 309 309 309 309 309 308 309 309 309 309 309 308 308 308 307 306 305
315 319 319 312 309 310 310 309 310 313 316 313 313 316 314 315 317 316 320 320 314 314 316 314 317 317 315 315 316 316 316 313 313 311 307 307 309 309 310 312 313 313 313 313 313 314 313 314 314 313 313 313 314 314 314 313 313 313 313 313 313 312 312 311 311 311 310 309 309 309 310 309 309 309 309 309 309 309 308 308 308 308 307 306 306 305
316 317 317 313 312 310 305 306 309 309 310 314 315 315 313 313 315 316 318 319 315 315 316 315 316 315 316 318 318 318 318 317 320 318 310 306 307 308 310 312 312 312 313 313 313 313 313 313 313 313 313 313 313 314 314 313 313 313 313 312 312 312 312 312 311 311 310 310 310 310 310 310 310 310 310 309 309 308 308 308 308 308 307 307 306 305
316 314 316 316 314 312 307 309 313 309 306 311 314 313 312 315 317 316 317 317 315 316 317 317 317 315 315 317 316 316 317 318 320 319 315 313 309 309 311 312 312 312 312 312 313 313 313 312 313 313 312 312 313 313 314 314 313 313 313 312 311 311 311 311 310 310 310 310 310 310 310 310 309 309 310 309 309 309 308 308 308 308 307 307 306 305
315 313 316 316 313 313 312 312 316 315 310 309 309 310 312 313 315 316 317 317 316 316 317 318 317 316 316 316 315 318 318 318 317 316 319 318 310 308 311 311 311 311 311 312 312 313 313 312 312 312 312 312 312 313 313 313 313 313 313 312 311 311 311 310 310 310 310 310 310 311 310 310 310 309 309 309 309 309 309 309 308 308 307 307 306 305
316 314 315 318 316 314 315 316 318 318 315 313 312 312 312 312 314 315 314 315 315 314 315 317 317 317 318 316 315 316 315 314 315 317 321 316 307 308 310 310 310 310 311 312 312 312 313 313 313 313 313 313 312 312 312 312 313 312 312 313 312 312 311 311 311 310 310 311 311 311 311 311 311 310 309 308 308 308 308 308 308 308 307 306 306 305
320 318 316 319 319 317 317 318 318 317 315 315 314 313 312 312 314 314 314 315 316 314 315 316 315 318 321 318 314 313 312 311 314 316 316 310 307 310 311 310 311 311 312 312 311 312 312 312 313 314 314 314 312 312 312 312 312 312 312 312 312 312 312 312 312 311 311 311 311 311 311 311 310 309 309 308 307 307 307 308 308 307 307 306 306 305
318 316 316 316 317 318 317 316 316 314 313 313 312 312 313 312 312 314 315 315 316 315 315 316 315 318 321 318 314 314 313 312 311 310 310 309 309 312 312 312 313 313 313 313 312 312 313 312 313 313 313 313 312 311 311 311 312 312 312 312 312 312 312 312 312 312 312 311 310 310 310 309 309 308 308 307 307 307 307 307 307 307 307 307 306 305
314 314 315 316 316 317 316 315 314 312 311 312 312 311 312 312 312 313 313 313 315 315 316 317 316 319 322 320 316 314 313 312 311 309 309 309 309 311 311 312 313 313 313 314 313 313 313 312 312 313 313 313 312 312 311 311 311 311 311 311 311 311 312 312 312 311 311 311 311 310 310 309 308 307 307 307 307 307 308 307 307 307 307 306 306 305
314 315 316 316 317 316 316 316 315 313 311 312 313 312 311 312 313 313 313 314 314 314 315 316 315 317 320 319 316 314 313 312 312 311 310 309 309 310 311 311 312 312 312 312 311 310 310 310 310 311 311 311 311 310 310 310 310 311 311 311 310 310 311 311 311 310 310 310 310 310 310 310 309 308 307 307 307 308 308 307 307 306 306 306 305 305
314 316 317 316 316 316 315 315 317 318 314 311 312 313 312 312 313 313 314 314 314 314 315 315 315 315 316 315 314 313 312 312 311 311 311 311 311 311 311 311 310 310 309 308 307 307 307 307 307 307 307 308 308 307 307 308 308 308 309 309 309 309 309 309 309 309 309 308 309 309 309 309 309 308 308 308 308 308 307 307 306 305 305 305 305 305
312 314 316 315 315 316 315 315 316 318 316 313 313 314 313 313 312 312 313 313 314 314 314 314 314 314 314 314 313 312 312 312 312 311 311 312 312 311 310 309 307 306 305 304 304 305 305 305 305 305 305 305 306 306 306 307 307 307 307 307 308 308 309 309 308 308 308 308 308 308 308 308 309 308 308 308 308 307 306 305 304 304 304 303 303 303
311 312 313 314 314 314 315 315 315 315 315 314 314 314 313 313 312 312 313 313 313 314 313 314 314 314 314 313 312 312 312 312 312 312 312 311 309 308 306 305 304 303 302 302 302 301 301 302 302 303 303 303 304 304 305 305 306 306 307 308 308 308 309 309 308 308 309 308 307 307 307 307 308 308 307 307 306 306 305 303 302 302 302 302 302 302
310 310 311 312 312 313 313 313 313 314 313 313 313 313 313 314 314 313 313 312 313 313 313 313 313 313 313 312 312 312 311 311 311 310 308 305 303 302 301 301 300 300 300 299 299 299 299 299 299 299 300 300 301 302 303 304 305 306 306 308 308 308 309 308 307 308 308 307 307 307 307 307 307 307 306 305 305 305 304 303 302 301 302 302 301 300
308 309 310 311 311 311 311 312 311 311 311 311 312 312 312 312 313 313 313 313 312 312 312 312 312 312 312 311 311 310 308 306 305 303 301 300 299 299 299 298 298 298 298 298 298 297 297 297 297 297 297 298 298 299 300 301 302 303 304 306 306 307 307 307 307 307 307 306 306 306 306 306 306 305 305 304 304 304 303 302 301 301 301 301 300 299
307 309 309 309 308 309 309 311 311 310 310 310 310 311 311 311 311 311 311 311 311 312 311 311 312 313 310 306 305 303 301 300 300 299 298 298 297 297 297 297 297 297 296 296 296 296 296 296 296 296 296 296 296 297 297 298 298 300 301 302 303 304 304 305 306 306 306 306 306 306 305 304 304 304 303 303 303 303 302 301 301 301 301 300 299 298
306 306 307 307 307 307 308 309 310 310 310 310 310 310 310 310 310 310 310 311 311 311 312 312 312 309 304 300 299 299 299 299 299 298 297 296 296 296 296 296 296 295 295 295 295 295 295 295 295 295 295 295 295 295 296 296 296 297 298 299 300 301 302 303 304 305 305 305 306 305 304 303 303 303 302 303 303 302 302 301 300 300 300 299 299 298
304 304 305 305 306 306 307 308 308 308 308 308 308 309 310 310 310 310 310 308 307 307 308 308 304 301 299 298 298 298 298 298 298 298 296 295 294 294 295 295 295 295 295 294 294 294 294 295 295 295 295 295 294 294 295 295 295 295 296 297 299 300 301 301 301 302 303 304 304 303 302 302 302 302 302 302 302 302 301 300 300 300 300 300 299 298
302 303 304 304 305 305 306 306 306 306 306 306 306 307 307 307 307 306 303 299 299 300 300 299 298 297 298 297 296 296 297 297 298 298 296 293 293 293 293 294 294 294 294 294 293 294 294 294 294 295 295 294 294 294 294 294 295 295 295 296 297 299 300 300 300 300 301 302 302 301 300 300 300 301 301 301 301 301 300 300 300 300 300 299 298 298
301 301 302 303 303 303 304 304 304 303 304 304 301 300 300 299 299 299 296 293 294 296 296 296 296 296 296 296 295 295 295 295 296 297 296 294 293 292 292 293 293 293 293 293 292 293 293 293 294 294 294 293 293 293 293 294 294 294 295 295 296 297 298 299 300 299 299 300 300 299 298 298 299 299 299 299 299 299 299 299 299 299 299 299 298 298
300 300 301 301 302 301 301 302 301 301 302 303 299 297 297 297 296 297 297 294 293 294 295 295 296 295 295 295 295 294 294 294 293 295 296 294 292 291 292 292 292 292 292 292 292 292 292 292 293 293 293 292 292 292 292 293 293 294 294 295 295 296 296 297 298 299 299 299 298 298 298 297 297 297 297 297 298 298 298 299 299 299 299 298 298 297
300 301 301 300 301 301 300 300 300 300 303 303 299 296 296 296 295 296 298 296 293 293 295 295 295 294 294 294 294 293 293 292 292 294 295 293 291 291 291 291 291 291 291 291 290 290 291 291 292 292 292 291 291 291 291 291 292 293 293 294 294 295 295 295 296 298 299 299 298 298 298 297 297 296 296 296 296 297 297 297 297 297 297 296 296 295
300 300 301 301 302 302 302 302 302 303 303 299 295 294 295 295 295 295 297 297 294 293 294 294 294 294 293 293 293 292 291 291 291 292 292 291 290 290 290 290 290 290 290 290 289 290 290 290 291 290 290 290 290 290 290 290 291 291 292 293 293 294 294 295 295 296 297 299 299 298 298 297 296 296 295 295 295 295 296 296 296 296 295 295 295 294
299 299 300 300 301 301 301 301 301 302 302 296 293 294 295 294 294 295 297 298 294 292 294 295 294 294 293 293 293 291 291 290 290 291 291 290 290 290 290 290 289 289 289 289 289 289 289 289 289 289 289 289 289 289 289 290 290 290 291 291 292 293 294 294 294 294 295 297 297 298 298 298 296 295 295 294 294 294 294 294 295 294 294 294 294 293
299 299 298 297 297 297 298 299 299 300 300 295 292 294 293 291 292 295 298 298 292 290 294 295 294 293 293 292 292 291 290 290 290 290 290 289 289 289 289 289 289 289 289 288 288 288 288 288 288 288 288 288 288 288 289 289 289 289 290 290 290 291 292 293 293 294 294 295 295 296 298 298 297 296 295 294 293 293 293 293 293 293 293 293 292 292
297 297 297 296 295 295 296 296 296 298 297 292 291 292 292 292 294 295 296 294 289 289 294 294 293 292 291 291 291 291 290 290 290 289 289 289 289 289 288 288 288 288 287 287 287 287 287 287 287 287 287 287 287 287 288 288 288 288 289 289 289 289 290 291 292 293 293 293 294 295 296 297 298 297 296 295 293 292 292 292 292 292 292 292 291 291
295 296 296 296 296 296 296 295 295 296 295 292 291 291 291 293 294 294 292 291 289 291 294 293 292 291 290 290 290 290 289 289 289 288 288 288 288 287 287 287 287 287 286 286 286 286 286 286 286 286 287 287 287 287 287 287 287 287 288 288 289 289 289 289 290 291 293 293 293 294 294 295 297 297 296 295 294 292 291 291 291 291 290 290 290 290
295 294 294 295 295 294 293 293 293 294 294 291 290 291 291 292 292 291 290 290 291 292 293 292 291 291 290 289 289 289 288 288 288 288 287 287 287 287 287 286 286 286 286 286 286 286 285 285 286 286 286 286 286 286 286 286 287 287 287 287 288 288 288 289 289 290 291 292 293 293 294 294 295 296 296 296 295 294 292 291 290 290 290 289 289 289
294 292 292 292 293 292 291 292 293 293 292 290 290 290 290 291 290 290 290 291 292 293 293 292 290 290 289 288 288 288 287 287 287 286 286 286 286 286 286 286 286 286 286 286 285 285 284 284 285 285 286 286 286 286 286 285 286 286 287 287 287 287 288 288 288 289 289 290 292 293 294 294 294 295 296 296 295 294 293 292 291 290 289 288 288 288
292 292 291 291 292 292 292 292 292 291 290 290 290 290 290 290 290 290 290 290 291 292 292 290 289 289 288 287 287 287 286 286 286 285 285 285 285 285 286 286 286 286 286 286 285 285 284 284 284 285 285 285 285 285 285 285 285 285 286 286 286 286 287 287 287 288 288 289 290 291 292 294 294 294 295 296 296 295 294 293 292 291 290 288 288 287
290 290 289 290 291 291 290 291 290 289 289 290 290 290 290 290 289 289 289 289 290 291 290 289 288 288 287 287 286 286 285 285 285 284 285 284 285 285 285 285 285 285 285 285 285 284 284 284 284 284 284 285 285 285 285 285 285 284 285 285 285 285 286 286 287 287 287 288 289 289 291 292 294 294 295 295 296 295 295 293 293 292 291 290 288 287
289 289 289 290 290 290 290 290 289 289 289 289 289 290 289 289 289 289 289 289 290 290 289 288 287 287 287 286 285 284 284 284 284 283 284 283 284 284 284 284 284 284 284 284 284 283 283 283 283 284 284 284 285 284 284 284 284 284 284 285 285 285 285 286 286 287 287 287 288 288 289 290 292 294 294 294 295 295 295 294 292 292 292 292 290 289
289 289 290 290 289 289 289 289 289 289 289 289 289 289 289 289 289 289 289 289 289 289 289 288 287 286 286 286 285 284 283 283 283 282 282 282 283 282 282 282 282 282 283 283 283 282 282 282 282 282 283 283 284 284 283 284 284 284 284 284 284 284 285 285 286 286 287 287 287 288 288 289 291 292 294 294 293 293 294 294 293 292 293 293 293 293
289 289 290 290 289 289 289 288 288 288 288 289 289 289 289 289 289 289 288 288 288 288 288 287 286 286 285 285 284 283 282 283 283 281 280 281 282 281 281 281 281 281 281 281 281 281 280 280 281 280 281 283 283 283 283 283 284 284 284 284 283 284 284 285 285 285 286 287 287 287 288 288 289 290 292 293 293 293 292 292 293 293 293 293 293 293
289 289 289 289 289 288 288 288 288 288 288 288 289 289 289 288 288 288 288 288 287 287 286 286 286 285 285 284 283 282 281 282 282 280 279 280 280 280 280 280 280 280 281 280 279 279 279 279 278 278 279 281 282 281 281 282 283 284 283 282 282 282 283 283 284 284 285 286 286 286 287 287 288 288 289 291 292 292 291 291 291 291 292 291 291 291
289 289 289 289 289 289 289 289 289 288 288 288 289 289 288 288 288 287 287 287 286 286 285 284 284 284 284 283 282 281 280 280 280 279 278 279 280 279 279 279 278 279 280 279 278 278 278 278 277 276 277 279 279 279 280 281 283 284 282 279 279 280 281 281 281 282 284 285 285 286 286 286 286 287 287 288 290 291 290 290 290 290 290 290 290 290
Wind_Speed
9 5 3 6 11 13 12 12 16 16 11 7 4 6 8 8 10 10 12 13 4 5 9 10 15 16 15 15 16 26 28 24 27 28 30 33 35 38 41 46 49 48 54 56 55 52 49 47 46 45 42 38 34 31 31 33 34 35 37 40 42 43 45 46 46 45 45 45 45 45 44 44 42 41 41 41 41 42 41 41 40 39 38 37 36 36
6 6 7 13 16 13 11 12 13 10 6 6 6 8 8 7 13 13 13 16 4 2 10 10 15 18 16 15 15 21 20 17 24 27 29 33 34 37 40 46 50 50 54 55 51 48 46 46 43 42 40 37 35 33 31 31 31 32 35 38 40 42 45 47 46 45 44 44 43 43 42 41 40 40 40 40 40 41 42 42 41 41 40 39 38 37
4 5 11 18 14 6 6 5 5 6 6 7 6 6 8 6 10 12 12 14 4 2 8 9 14 17 14 14 14 16 18 20 30 33 35 37 33 36 42 46 50 50 51 52 49 46 45 45 41 39 38 37 35 33 30 29 29 31 34 37 39 43 45 46 46 45 43 43 42 41 40 39 39 39 39 39 39 39 41 42 42 42 42 41 40 38
5 6 14 18 10 4 8 5 3 4 5 6 6 6 8 5 7 9 6 7 4 3 7 9 14 14 11 14 13 19 27 27 32 38 41 42 38 42 48 48 48 49 50 52 50 46 45 44 40 39 38 35 32 30 29 29 29 31 33 35 38 41 43 45 45 44 42 41 41 41 40 40 39 38 37 38 39 39 40 42 43 44 44 43 41 39
8 7 11 11 8 8 10 8 5 6 7 9 9 8 10 10 12 12 4 6 6 4 6 8 14 12 9 13 11 15 23 22 27 32 34 41 46 48 48 46 48 50 51 52 50 47 46 44 42 40 38 35 33 31 29 28 30 31 32 34 36 39 41 43 43 42 41 42 42 42 42 42 42 40 39 39 40 40 41 43 44 45 45 44 42 41
10 10 7 5 6 9 9 8 8 8 9 10 8 12 17 16 13 13 8 7 6 4 4 3 9 10 5 10 10 8 9 11 17 19 24 38 44 41 40 43 48 49 49 48 48 46 44 42 41 40 38 36 35 32 29 27 29 31 32 34 36 38 39 40 41 41 41 42 43 43 44 44 44 43 42 40 39 40 41 43 44 44 44 44 43 42
6 8 8 8 8 9 7 7 8 11 9 9 6 12 17 13 10 11 8 4 2 4 3 2 1 10 6 6 10 9 7 10 12 11 19 32 34 32 36 43 45 45 45 44 43 42 40 38 37 37 35 33 32 28 25 25 27 29 31 33 35 36 37 38 39 40 41 41 42 42 43 42 42 42 40 38 38 39 40 40 41 42 43 43 43 43
3 4 5 6 7 6 6 8 8 11 8 7 5 9 11 9 9 8 5 4 4 3 3 2 5 6 13 7 9 11 10 11 13 13 16 22 28 32 37 42 42 40 40 38 37 35 34 35 35 34 32 30 28 24 22 23 24 27 29 31 33 34 35 36 37 38 39 40 41 41 41 41 41 40 39 38 38 39 39 40 41 42 43 43 43 43
4 4 6 7 5 5 8 8 7 12 8 6 3 5 7 7 6 5 5 5 1 4 4 4 5 2 13 8 4 5 8 9 14 16 15 16 25 33 36 37 36 35 35 33 34 32 31 35 35 34 32 29 26 23 20 20 22 25 28 30 32 33 34 35 35 37 38 38 39 39 39 40 40 40 40 40 40 40 40 41 41 42 43 44 44 44
1 3 5 7 6 6 9 5 7 13 8 4 5 5 4 3 3 4 4 3 2 5 5 6 6 3 12 9 3 2 3 8 12 12 11 14 23 31 32 33 31 30 30 30 33 33 32 33 33 31 29 25 22 20 18 19 21 24 28 30 32 33 33 34 34 35 36 37 37 38 39 39 39 40 42 43 42 42 42 42 42 43 43 44 44 44
6 1 1 5 7 5 3 1 2 8 5 2 5 4 6 4 4 4 1 3 2 7 6 10 12 6 7 6 4 3 4 7 8 7 8 12 19 29 31 31 28 26 26 26 31 34 32 31 30 29 26 22 19 18 19 20 22 24 27 29 31 32 32 33 33 35 35 36 36 37 38 38 39 40 42 43 43 43 43 43 43 43 43 43 43 44
5 3 2 5 7 4 4 2 2 1 1 2 3 3 4 4 4 5 4 3 2 8 5 9 12 9 8 6 1 4 7 6 7 6 8 9 14 25 29 29 28 26 27 28 31 32 31 30 28 25 22 18 17 18 19 20 22 24 26 28 30 31 32 32 33 34 35 35 36 36 37 38 39 40 41 42 42 42 42 42 42 43 44 44 44 44
3 6 4 1 5 8 5 1 3 5 2 3 3 2 0 4 3 3 3 1 3 8 4 6 7 5 11 9 4 8 10 9 8 8 11 10 12 24 28 27 27 26 26 29 29 25 22 23 24 22 19 16 16 18 19 20 22 23 25 27 29 30 31 32 33 34 35 35 36 36 37 38 40 41 41 42 42 41 41 41 41 42 43 44 44 45
4 5 2 2 4 9 9 5 3 2 3 7 5 5 4 2 2 4 4 2 5 7 2 3 5 4 10 7 7 13 12 11 9 11 19 20 20 27 29 29 28 26 25 26 26 22 18 18 20 21 20 18 17 18 18 20 22 24 25 26 27 28 30 31 32 33 34 35 35 36 37 38 40 41 42 42 42 41 41 41 41 41 41 42 42 42
4 7 4 5 3 8 12 10 8 4 4 6 5 5 5 5 5 4 4 5 7 5 3 1 4 5 5 3 6 10 10 11 12 15 19 22 23 25 27 30 30 28 27 27 27 27 25 23 23 23 22 20 18 18 19 21 22 24 25 25 26 28 30 31 33 34 34 35 36 37 38 39 40 41 42 42 41 41 41 41 41 41 41 41 41 40
5 9 6 3 2 9 9 7 5 5 1 3 3 4 4 5 4 3 6 6 5 4 3 3 4 5 5 5 7 7 8 11 14 15 13 16 21 21 23 29 29 30 32 30 30 28 26 23 23 24 23 21 18 18 19 20 22 23 24 25 26 27 28 30 32 33 35 36 37 39 40 40 41 42 42 43 42 43 42 42 42 42 41 41 41 41
4 7 4 1 1 4 4 3 2 4 3 1 3 3 4 2 5 3 6 3 1 4 6 6 8 6 4 9 7 3 5 7 9 11 10 14 20 20 21 24 25 25 24 22 20 18 18 20 22 21 18 18 18 19 19 19 20 23 25 25 25 27 29 30 32 33 35 37 39 40 41 42 43 44 44 44 44 45 44 45 44 43 43 43 43 43
4 8 6 1 2 4 3 3 2 0 3 4 3 5 2 1 2 2 2 2 2 7 6 8 14 11 6 9 6 6 9 9 7 7 6 9 12 12 14 16 14 13 14 15 14 15 19 20 20 18 15 15 16 17 19 18 19 23 27 27 27 28 30 31 32 34 36 38 40 41 43 44 45 45 46 46 46 46 46 46 45 45 45 45 45 45
1 5 7 2 2 3 4 2 3 4 2 4 3 2 2 1 3 1 2 2 5 8 5 6 13 11 7 10 9 8 9 9 7 7 7 7 7 9 13 15 12 11 15 18 17 20 22 21 20 20 17 15 15 15 15 16 18 22 26 29 30 29 30 32 34 36 37 39 40 42 44 45 47 47 47 47 47 48 48 47 47 47 47 47 47 47
1 2 5 1 3 1 4 0 2 3 2 1 2 3 1 3 3 3 3 2 4 8 8 7 9 7 7 9 9 7 8 7 7 7 6 6 8 12 16 18 18 19 22 22 21 25 27 26 25 26 25 21 16 13 11 12 15 18 22 27 28 29 30 33 36 37 38 39 40 43 45 47 48 49 49 50 50 50 50 49 49 49 48 49 49 48
2 2 5 2 1 2 2 3 5 4 2 2 2 3 3 3 1 1 2 2 3 7 7 7 8 7 4 6 7 7 6 5 6 6 6 8 14 20 20 19 22 27 30 28 25 29 32 31 29 29 32 32 24 18 16 15 15 16 18 21 23 25 27 30 33 36 36 37 38 42 45 48 50 51 52 52 53 53 52 51 51 50 50 51 51 50
1 2 2 2 4 6 7 6 7 6 5 4 4 4 5 5 3 5 6 5 4 6 7 8 9 6 3 7 11 9 6 5 6 6 5 10 21 30 32 33 35 41 46 43 37 37 38 38 36 34 39 41 35 30 30 28 27 25 23 22 23 24 27 30 32 34 35 37 40 42 44 48 52 54 55 55 56 56 55 54 53 52 53 53 52 51
3 2 2 5 7 10 13 9 6 7 6 5 5 5 6 6 5 7 9 7 5 5 5 7 9 6 5 10 16 15 13 12 10 8 8 15 25 31 37 43 45 46 51 54 53 53 51 46 41 39 40 41 40 38 36 34 35 33 31 29 28 29 31 33 34 34 36 39 43 45 47 49 52 55 57 58 58 58 57 57 56 55 55 55 54 53
4 3 3 7 5 6 10 12 9 6 5 5 6 8 9 10 10 10 8 6 6 6 5 8 9 4 5 9 13 15 18 20 19 19 16 17 23 27 31 37 40 41 46 51 54 55 53 46 40 37 36 37 39 40 38 35 34 35 35 33 30 30 32 34 34 34 35 39 42 45 50 53 54 54 56 58 59 60 59 59 59 58 58 57 56 55
4 3 3 5 5 5 6 8 8 4 4 6 8 10 11 12 14 12 7 3 5 9 9 11 10 5 5 7 9 14 19 19 21 26 23 18 21 25 27 31 35 38 40 41 40 39 38 36 33 32 32 34 37 38 38 37 37 41 42 40 36 34 33 32 32 34 36 39 42 46 50 55 56 55 55 55 56 58 60 61 61 61 61 60 58 57
3 5 5 5 7 9 10 8 5 3 3 3 5 9 12 13 15 12 7 6 8 10 12 12 10 8 8 8 10 14 19 19 21 28 29 24 24 27 29 29 27 26 25 24 25 26 26 25 25 26 28 31 34 36 37 39 40 42 43 41 39 38 37 35 36 39 42 44 47 49 51 55 57 56 54 52 51 53 59 63 64 64 63 61 60 59
1 3 6 11 12 12 13 12 8 4 3 4 5 9 10 10 12 10 7 9 10 10 12 12 13 14 12 11 14 17 19 20 20 23 28 28 26 25 24 19 15 15 17 20 21 21 21 21 21 23 25 27 29 31 34 36 37 37 37 38 38 39 41 43 44 46 48 50 52 52 51 53 56 56 52 49 48 50 56 61 63 64 63 62 61 61
2 3 7 13 15 14 15 17 16 14 13 12 12 12 11 10 11 10 11 13 12 12 13 12 13 16 13 11 15 19 19 19 19 20 25 26 22 19 18 21 23 24 26 27 28 28 27 26 25 25 25 26 27 28 30 32 33 34 36 37 37 38 38 41 44 47 50 53 54 53 51 50 52 53 51 49 50 52 55 59 61 62 62 60 61 61
3 4 7 12 15 15 16 18 18 18 16 15 15 16 16 16 16 16 18 18 14 14 15 13 14 18 15 13 16 18 18 17 15 17 22 28 31 30 29 28 29 31 33 33 33 33 32 32 31 30 29 29 29 29 30 31 33 34 36 36 37 38 37 38 42 45 49 53 55 54 51 48 48 50 50 50 52 53 55 57 58 59 59 60 61 61
4 3 5 9 12 13 14 16 17 18 17 17 16 15 15 17 18 19 20 19 18 19 19 18 21 22 17 14 14 12 13 16 18 24 28 29 29 29 29 30 30 31 33 33 35 35 35 36 35 35 35 34 34 34 34 34 33 34 35 35 36 39 40 40 41 43 45 49 51 51 49 47 47 49 49 50 51 53 54 55 56 56 57 59 60 59
4 3 5 6 8 10 12 13 14 15 15 16 16 14 14 16 18 18 18 17 18 21 22 23 24 18 9 9 9 14 21 21 20 22 22 23 26 27 27 28 29 30 32 33 34 36 37 37 38 38 38 38 38 38 37 37 36 35 35 34 35 35 37 39 41 43 44 44 45 46 46 46 46 47 48 49 50 51 53 53 54 55 56 57 57 57
3 4 6 7 8 9 11 13 14 13 13 14 15 16 18 18 16 15 16 16 17 19 21 21 16 7 7 10 9 13 17 15 13 14 17 22 27 27 26 27 28 30 31 32 34 36 38 38 38 39 39 38 38 38 38 39 39 39 38 37 37 36 34 34 37 40 43 43 42 43 44 44 44 45 46 46 48 50 51 51 53 54 55 55 55 54
4 4 5 6 7 8 9 13 13 11 11 12 11 13 16 17 16 16 15 13 10 10 10 9 5 3 6 9 11 14 14 13 13 11 13 20 25 26 27 27 28 30 31 32 34 35 37 38 37 37 37 37 38 38 38 39 40 41 41 39 39 39 37 35 32 32 36 38 38 40 41 42 42 43 44 44 46 48 49 50 52 53 53 53 53 52
7 7 6 6 6 8 11 13 11 9 12 11 5 4 4 5 6 6 4 4 6 6 3 1 1 5 7 10 11 12 12 15 17 10 10 20 25 26 28 29 29 31 32 33 34 35 36 37 37 37 37 38 40 39 39 39 40 42 43 41 40 40 40 40 37 33 31 30 32 34 37 38 39 41 42 42 44 46 48 49 50 51 51 50 50 50
10 9 7 6 6 8 9 10 10 11 10 4 4 5 3 4 6 5 5 6 7 6 6 5 5 8 10 9 10 11 13 20 21 10 5 21 30 29 29 30 30 32 33 35 36 36 37 37 37 38 38 39 41 41 40 40 41 42 44 42 41 40 40 41 41 39 35 31 30 31 32 35 37 38 40 41 42 44 45 47 48 49 49 49 49 50
10 8 6 5 6 6 5 7 10 11 6 1 5 6 4 4 6 4 4 6 7 6 6 6 6 7 9 9 11 14 17 22 21 11 7 21 32 31 30 31 31 32 33 35 37 37 37 36 36 37 38 39 41 41 41 40 40 40 42 41 40 39 39 41 42 42 41 38 35 32 31 31 33 36 37 39 41 43 44 46 47 47 48 48 48 49
10 8 5 5 6 6 7 9 10 11 9 3 0 5 3 1 3 3 1 3 5 3 2 3 4 5 6 7 11 16 18 18 14 7 7 20 30 30 30 31 31 32 33 34 36 36 36 35 34 35 36 38 40 40 40 40 40 40 40 40 40 40 40 40 41 42 42 42 40 37 33 30 31 32 35 37 40 42 44 45 46 47 47 47 48 48
8 8 7 6 5 5 8 8 6 9 7 2 3 5 5 7 7 5 5 1 4 1 3 2 1 3 4 5 10 14 15 13 8 7 14 26 31 30 31 31 30 31 33 35 36 37 36 34 34 35 36 37 39 39 40 41 41 41 41 40 40 40 40 40 40 40 41 42 42 41 37 33 30 30 32 35 38 40 42 44 45 46 46 46 47 47
1 4 5 5 4 4 7 7 5 6 3 2 3 6 8 13 10 5 4 3 4 1 6 4 2 1 0 3 6 8 10 9 7 12 23 32 33 31 32 33 33 33 34 34 34 34 35 34 35 36 37 38 39 40 41 42 42 42 42 42 41 40 40 40 40 39 39 40 41 41 40 37 33 30 30 32 35 37 40 42 44 45 45 45 46 46
5 3 2 4 5 6 7 7 5 4 2 1 4 6 10 15 7 2 6 3 2 4 5 5 3 3 1 4 5 2 4 6 9 19 31 35 34 33 32 32 34 34 34 33 32 32 33 35 35 37 39 39 40 41 42 43 44 44 43 43 43 42 40 39 38 37 36 37 38 39 39 38 36 32 29 30 32 35 37 40 41 43 44 44 45 45
2 2 3 4 6 8 8 7 5 3 2 1 4 7 12 12 3 3 7 5 7 11 5 5 3 4 4 7 6 4 9 15 19 28 35 34 33 34 34 33 34 34 33 33 33 33 35 36 37 38 39 40 41 42 42 43 45 46 45 44 44 44 43 40 39 37 36 36 36 36 36 36 36 34 30 28 29 32 35 38 40 42 42 43 43 44
1 2 3 3 3 4 4 4 6 5 2 2 5 10 10 4 2 5 7 7 13 14 8 6 6 7 7 9 9 12 19 23 25 29 33 34 34 35 36 35 34 35 35 34 34 35 36 38 40 41 41 41 42 42 43 44 46 47 47 46 45 44 44 43 41 39 37 36 35 35 34 33 34 34 32 28 27 29 32 36 38 40 41 42 43 44
2 1 3 3 2 2 3 4 7 6 1 6 9 9 4 1 5 11 11 10 13 14 12 10 10 10 11 12 14 18 21 23 25 28 30 33 36 37 38 38 37 37 37 37 38 38 38 41 44 45 45 45 44 44 44 46 47 48 49 48 46 45 45 45 44 42 40 38 36 35 34 33 32 32 32 30 27 26 29 32 36 38 40 41 42 43
2 2 3 3 3 4 5 5 5 4 5 13 13 7 6 11 16 17 14 12 14 14 14 13 13 14 14 14 16 20 21 22 25 26 27 30 33 35 36 37 37 39 40 41 41 40 41 44 48 48 48 47 47 47 47 47 49 50 51 50 48 47 46 46 45 44 42 41 38 36 35 33 32 32 32 31 28 26 28 30 32 36 39 40 41 42
3 4 4 4 5 5 5 7 8 8 16 26 25 19 18 22 23 21 18 18 20 18 16 14 17 19 18 17 17 20 22 24 25 26 28 31 33 33 33 34 36 38 40 42 43 42 44 46 49 51 51 50 49 49 49 48 49 51 52 51 49 48 47 47 47 46 44 43 41 39 37 35 33 32 31 31 31 29 29 30 30 33 36 39 41 42
6 6 3 1 5 6 6 11 14 13 19 28 31 28 26 27 28 28 24 23 24 23 19 17 19 21 21 21 20 21 23 26 27 28 30 31 32 33 34 35 37 38 39 41 42 43 45 48 50 52 53 53 52 52 52 51 50 51 52 52 50 48 47 47 47 46 45 44 42 40 39 38 36 33 31 31 32 32 32 32 32 32 34 37 40 42
6 9 6 5 7 7 7 9 9 10 19 26 27 28 30 33 35 33 29 25 25 25 23 21 20 22 24 25 24 24 25 27 28 30 31 31 32 33 35 36 38 39 40 42 43 43 45 48 50 52 54 55 56 56 56 55 53 52 52 51 50 50 49 48 48 47 47 46 44 43 42 41 39 36 34 33 33 34 35 35 35 35 35 36 38 40
6 5 5 6 9 8 7 10 13 18 26 29 29 30 32 36 38 36 31 27 25 25 25 24 24 24 26 28 28 28 29 31 31 31 31 32 34 35 36 37 38 39 41 43 44 46 47 49 51 53 55 57 58 59 59 59 57 55 53 52 51 52 51 50 49 48 48 47 46 45 44 43 42 40 37 36 35 36 37 38 38 39 40 39 38 39
6 3 5 6 7 7 8 11 16 20 21 24 29 33 33 33 33 29 25 24 24 25 26 27 27 27 28 29 29 28 30 35 35 31 30 33 36 38 39 40 40 42 44 45 46 47 49 51 53 54 56 59 60 60 60 60 59 57 56 54 53 52 52 52 51 50 49 48 47 46 45 45 45 43 41 39 38 37 39 40 41 41 42 42 41 40
5 7 8 6 6 7 9 13 17 13 9 14 26 31 31 29 25 22 22 23 23 25 26 26 29 31 30 30 30 29 31 36 36 32 31 35 39 40 41 41 42 45 47 47 48 49 51 52 53 54 57 61 62 60 61 61 60 59 57 56 54 52 52 52 51 51 50 49 47 46 44 44 46 45 43 41 40 39 39 40 42 43 43 43 43 43
12 12 11 8 7 11 16 23 24 15 9 17 29 32 30 28 24 22 24 25 25 26 26 26 29 31 32 33 33 31 31 34 36 34 34 38 41 41 42 42 43 46 49 50 50 51 53 55 55 55 58 62 62 62 63 64 63 61 58 56 54 53 52 50 49 50 51 49 47 45 42 42 44 44 43 42 41 40 39 40 42 43 44 44 45 44
Wind_Direction
168 168 158 192 221 224 212 198 214 230 240 255 248 243 250 258 264 256 264 267 252 277 267 250 263 267 265 263 264 270 273 275 275 271 267 267 268 270 272 273 274 274 277 284 287 285 284 282 280 279 279 278 277 272 266 261 258 255 253 251 250 248 245 243 241 239 238 236 234 232 230 229 229 229 230 230 230 230 230 231 231 232 233 233 233 234
170 195 207 213 224 223 215 213 223 241 263 265 247 261 261 247 263 260 263 271 248 229 266 259 271 272 264 264 264 268 269 262 264 269 269 268 267 268 270 271 273 275 278 283 285 285 284 282 281 279 279 278 277 275 269 264 260 256 251 250 249 247 245 244 242 241 239 239 238 237 236 233 229 229 230 230 230 229 229 229 230 231 232 233 233 234
206 223 227 226 233 242 248 234 213 232 239 244 242 266 267 246 270 268 251 266 263 196 273 274 269 269 267 265 258 258 258 251 255 260 265 268 268 267 267 269 272 274 276 279 282 283 284 284 283 281 279 279 279 278 272 266 260 255 251 249 248 246 245 244 242 241 240 241 240 240 239 236 231 230 232 232 232 231 230 230 230 231 232 232 233 234
227 235 233 233 236 238 257 249 197 252 238 220 224 245 263 249 263 264 243 280 298 218 269 287 275 273 267 263 254 247 250 252 254 256 261 264 264 263 263 265 269 271 274 277 279 282 283 283 283 281 281 281 280 275 270 264 257 252 250 249 247 246 245 244 242 241 240 239 238 236 235 233 231 231 232 232 232 232 232 231 231 231 231 232 233 234
243 241 231 225 215 208 238 246 221 258 258 227 215 222 252 247 242 253 278 337 322 269 272 293 292 283 237 239 250 245 247 250 252 254 259 260 260 261 263 265 267 269 272 275 278 282 284 282 282 282 281 282 280 275 271 266 261 257 253 251 249 246 245 243 242 239 237 235 233 232 229 228 228 228 229 230 231 231 231 231 231 232 231 232 233 233
257 250 221 183 199 204 217 236 213 213 250 255 216 209 237 247 250 261 290 339 338 301 302 333 304 295 206 201 236 248 245 247 247 248 253 255 258 260 264 267 267 269 272 274 278 283 285 284 283 283 282 283 283 280 277 270 264 260 256 253 250 247 244 242 241 237 235 233 232 231 229 227 226 226 227 230 230 230 230 230 231 231 232 232 233 234
256 242 212 197 209 197 197 241 221 196 235 272 227 207 228 242 254 260 274 309 274 258 294 71 275 287 281 201 217 236 240 246 246 242 246 251 257 261 263 266 269 271 275 277 280 283 285 286 285 285 285 286 287 287 281 270 261 256 253 251 250 248 245 242 238 236 234 232 232 232 233 233 232 231 232 233 233 233 233 233 233 233 233 233 233 234
207 228 223 214 207 177 189 242 219 179 205 266 229 195 208 222 235 234 223 223 233 274 294 152 145 272 287 249 193 212 226 244 252 246 249 254 258 261 262 265 269 272 274 278 281 281 283 285 286 288 288 288 289 289 282 269 258 252 248 248 248 247 244 241 238 236 234 233 232 232 233 235 235 236 237 238 237 237 236 235 235 235 234 234 233 233
158 202 219 193 174 184 210 228 183 159 194 251 180 157 178 192 202 167 163 198 237 341 289 209 138 222 280 270 158 203 227 241 253 248 249 255 256 258 260 264 268 271 273 275 276 276 279 284 287 289 289 288 288 286 280 269 257 251 246 244 244 242 241 239 236 235 234 234 233 233 233 233 234 235 236 238 239 239 238 237 237 236 235 235 235 234
200 215 204 164 162 215 223 226 164 164 199 223 120 95 78 89 87 109 150 154 82 314 262 191 154 196 278 281 97 78 237 236 249 251 252 254 256 259 262 265 266 270 275 273 273 276 281 284 287 289 288 289 287 283 275 261 250 247 243 241 241 239 238 237 235 235 234 233 233 232 233 233 233 233 234 236 237 238 239 239 238 238 237 236 236 235
249 243 102 175 203 213 177 78 175 180 195 119 100 58 30 26 32 60 64 88 81 283 244 180 178 180 276 285 136 160 234 231 240 254 264 263 261 261 260 262 264 268 271 270 273 279 283 286 289 290 291 293 291 285 274 257 246 244 242 240 240 239 238 236 235 234 233 232 232 232 232 232 232 233 233 234 235 235 236 237 238 238 238 237 237 236
258 208 213 215 209 180 115 87 344 4 97 92 89 59 19 327 3 30 349 56 141 263 242 181 179 174 233 261 191 263 275 259 237 236 251 256 263 266 262 258 260 265 269 272 277 282 288 294 299 298 296 297 294 289 278 259 245 243 243 241 239 238 237 236 235 234 233 232 232 232 232 231 231 232 232 232 233 234 235 235 237 238 239 239 237 237
277 220 229 218 199 188 159 154 330 355 67 125 118 123 6 308 344 356 304 98 204 254 246 171 166 194 245 254 267 270 270 257 236 230 242 246 267 277 274 266 263 266 273 281 288 295 302 309 314 312 307 302 297 293 282 263 248 244 243 241 241 239 238 236 235 234 234 233 233 232 231 230 231 232 232 233 234 236 236 237 238 238 238 238 237 236
288 266 201 110 240 198 163 168 234 267 176 162 156 161 169 208 247 260 265 272 261 266 275 166 173 246 278 272 232 236 247 255 255 251 251 253 263 273 277 277 275 276 283 290 296 305 316 317 317 316 312 306 297 291 281 265 252 246 244 243 242 241 240 238 237 236 234 233 232 231 231 231 232 232 233 234 235 236 237 238 239 240 240 240 239 238
255 286 209 169 227 178 174 204 204 161 161 187 166 146 174 189 195 221 231 248 262 276 314 217 189 229 271 274 221 228 257 278 275 264 259 261 266 271 276 281 284 283 283 289 296 304 311 312 311 309 306 304 300 293 282 267 257 251 248 244 243 242 242 240 238 237 235 233 232 231 232 232 232 233 234 235 236 236 237 238 239 240 241 242 242 242
215 269 246 207 162 156 180 226 181 124 179 232 129 115 221 206 172 221 242 235 252 290 290 231 224 232 244 271 260 251 272 278 274 273 275 282 283 285 281 279 282 282 283 293 303 309 317 322 319 310 303 298 296 293 284 268 258 256 253 249 247 245 246 244 242 240 237 235 234 233 232 232 232 233 234 234 235 236 237 238 239 241 242 243 244 245
233 269 265 41 34 168 205 279 165 158 213 216 124 187 242 177 141 224 271 285 308 265 254 241 260 279 297 287 290 337 315 289 285 284 285 290 290 291 286 283 286 291 299 313 318 322 335 340 334 326 316 305 297 295 292 280 267 262 259 255 253 249 246 246 245 242 239 236 235 234 233 233 233 232 232 232 233 235 237 239 240 241 243 244 245 246
247 277 274 210 253 267 306 325 324 90 139 132 177 220 238 50 121 167 263 318 257 246 246 243 259 279 302 284 302 2 329 305 294 284 288 298 297 301 305 305 307 313 329 338 336 337 338 335 336 337 330 319 311 306 302 294 278 267 263 259 256 253 251 250 248 245 241 239 237 235 234 233 233 232 233 234 235 238 239 240 240 240 241 242 243 245
210 277 282 246 210 290 359 353 314 344 99 150 218 248 116 212 251 165 174 224 236 248 252 229 246 264 267 264 280 295 284 282 285 291 305 306 311 327 322 317 316 322 331 334 337 340 336 333 340 345 340 327 321 318 310 300 285 270 264 261 258 258 258 256 253 250 247 245 242 240 238 238 237 236 236 236 237 238 239 239 239 240 241 242 243 245
113 223 261 192 145 338 9 90 210 302 327 148 299 333 74 193 211 192 190 186 229 251 258 237 236 247 246 256 269 255 238 253 279 294 296 278 290 311 312 309 308 317 332 339 343 344 343 344 346 347 343 333 325 322 317 308 298 283 272 268 266 266 264 261 257 255 254 252 249 246 244 242 241 240 239 239 239 239 238 238 239 240 242 243 244 245
122 218 250 251 282 301 294 206 189 208 211 173 235 261 252 228 221 260 230 179 223 249 256 253 245 240 250 270 262 236 217 232 249 255 264 280 299 304 303 302 303 310 319 323 322 323 326 331 336 335 330 326 326 326 325 322 315 302 289 282 278 276 275 272 266 259 256 255 254 252 250 247 244 242 242 242 242 242 241 241 241 242 243 244 245 246
150 218 246 291 289 272 255 216 172 172 176 176 201 225 243 242 252 274 254 212 211 239 246 255 256 248 269 293 280 260 241 238 227 222 255 294 299 298 297 298 303 308 309 310 310 310 313 320 325 324 319 314 310 309 308 306 304 300 295 294 291 286 285 284 278 269 262 257 255 255 255 252 249 247 245 244 243 243 243 242 242 242 243 244 245 245
152 129 212 244 247 253 261 253 204 193 210 231 229 226 246 243 226 246 252 241 237 249 252 258 260 243 218 262 276 279 280 283 270 247 260 280 283 285 288 291 296 299 300 302 304 305 310 317 322 321 317 309 303 300 297 295 294 292 289 287 285 285 288 286 282 277 271 265 262 261 259 257 253 251 249 247 246 245 244 244 244 243 243 244 244 245
143 109 229 251 257 258 269 275 265 232 212 243 244 223 228 234 231 238 249 257 258 257 261 262 259 233 195 240 267 280 284 289 284 272 266 271 276 277 280 284 290 291 291 293 294 297 304 313 318 318 312 304 299 298 296 294 293 292 290 283 275 278 286 286 280 277 275 274 273 270 265 261 257 255 253 252 251 249 247 246 245 245 244 244 244 245
190 195 220 248 277 272 266 277 279 256 197 224 243 230 227 231 237 249 260 272 261 245 242 255 259 242 224 249 267 279 282 285 283 279 277 277 280 281 279 280 284 285 286 290 295 302 310 317 319 316 309 303 301 302 303 304 302 299 295 290 284 284 286 283 278 278 279 279 278 275 270 264 260 258 257 256 256 254 251 249 247 246 245 245 245 245
231 233 220 236 257 258 261 261 255 240 189 215 243 232 230 229 230 242 252 244 248 238 232 246 259 256 253 263 271 275 278 279 281 285 287 286 286 287 286 287 289 292 300 311 321 325 326 326 324 319 315 312 310 311 311 309 306 304 303 301 301 302 300 294 289 287 286 284 282 279 274 267 260 258 259 260 260 259 255 251 248 247 246 246 246 245
261 263 242 245 249 250 261 266 265 281 262 257 261 236 229 229 228 235 244 245 255 258 247 247 259 265 263 264 270 270 272 278 284 288 287 287 290 295 302 320 346 358 359 4 4 358 353 348 341 333 326 321 317 314 310 306 304 307 309 308 308 308 307 303 300 297 293 289 285 280 277 271 261 256 258 261 263 262 258 252 249 247 247 246 246 246
200 269 252 252 258 257 266 274 276 281 272 264 269 261 254 252 242 241 247 251 259 265 260 254 259 268 265 257 264 267 270 274 277 283 293 310 335 360 16 26 30 25 21 21 20 17 15 9 3 356 349 342 335 327 320 316 312 310 307 303 300 300 299 299 300 299 296 292 287 283 281 275 263 257 259 261 261 261 259 254 250 248 247 247 247 247
198 263 250 253 264 261 265 273 272 274 273 266 264 261 260 259 254 252 254 255 257 259 265 271 270 269 267 258 254 260 270 280 292 319 344 3 18 29 34 31 25 20 18 17 14 12 12 9 8 6 1 358 352 344 338 332 324 319 311 301 294 290 289 292 295 294 294 293 290 288 286 279 268 261 261 261 260 260 260 256 252 250 249 248 248 247
218 265 255 255 269 269 268 272 271 273 275 272 268 263 263 264 262 262 263 266 267 265 268 273 268 264 267 272 274 295 328 343 355 7 17 23 24 26 26 23 19 15 11 8 5 5 4 3 3 3 2 2 359 356 352 346 339 334 325 315 305 296 290 291 289 286 287 290 291 292 289 281 272 266 264 263 262 262 260 256 252 250 249 248 247 246
249 294 322 301 290 283 277 272 269 267 265 269 273 269 267 266 264 265 268 270 270 268 266 266 264 264 291 324 342 7 10 11 14 15 20 23 21 22 21 15 11 8 5 3 360 358 358 358 358 358 358 358 358 357 355 352 348 344 340 334 328 318 307 296 287 284 285 286 289 292 289 282 276 270 267 266 264 262 259 255 251 249 248 247 246 246
277 292 316 309 286 277 276 272 271 273 270 268 267 264 262 261 260 259 257 254 258 264 268 271 272 284 358 0 2 13 12 11 11 13 19 20 18 17 14 8 4 0 358 357 354 353 353 352 352 352 352 353 353 352 351 348 345 343 343 342 341 340 334 316 296 287 287 286 288 290 289 285 280 275 271 268 265 263 259 254 250 248 247 247 246 246
256 273 286 283 278 277 274 274 281 291 285 270 264 265 263 262 264 264 261 262 276 285 278 277 286 323 5 12 6 3 6 1 350 3 26 22 16 13 7 0 355 352 351 351 350 348 347 347 346 347 347 347 347 346 346 345 341 339 340 341 342 345 347 341 325 306 295 291 292 294 291 287 283 279 275 271 267 263 258 253 250 248 248 247 246 246
249 257 262 264 274 277 280 289 295 284 271 268 285 318 294 289 293 284 285 331 359 16 27 35 353 348 7 31 20 357 351 344 335 343 37 27 16 8 359 353 349 346 345 344 344 343 343 343 342 343 343 342 342 342 342 342 339 337 337 339 340 342 347 349 347 338 323 310 304 302 297 292 288 284 279 272 266 262 257 253 251 249 248 247 246 246
254 254 255 253 262 269 279 288 276 262 261 269 48 41 33 48 53 79 89 47 23 37 44 23 17 22 20 24 15 350 336 336 332 314 355 11 8 1 352 346 344 341 339 339 340 339 339 339 339 339 338 337 338 339 340 340 338 336 335 337 338 340 343 346 348 350 347 338 327 318 308 300 294 288 282 274 267 262 258 254 251 250 249 248 248 247
241 252 254 247 258 266 265 253 254 270 282 148 80 39 25 26 31 50 86 55 26 24 37 21 16 30 18 3 1 350 333 329 326 301 301 348 353 350 343 339 337 335 335 334 334 334 335 335 335 334 333 333 334 336 338 339 337 335 334 336 336 336 337 340 344 348 350 349 344 335 324 313 303 292 284 277 270 265 261 257 253 252 250 248 247 245
226 241 251 249 245 245 254 251 256 284 292 243 290 7 16 336 340 326 286 62 47 9 359 27 20 23 14 354 349 346 337 328 320 304 323 339 339 338 336 333 331 330 329 329 329 330 330 330 329 329 329 330 332 334 336 336 335 333 332 334 335 335 335 336 339 342 345 347 349 345 337 327 314 300 288 279 272 268 263 259 255 252 249 247 244 242
215 223 232 249 240 235 265 268 262 276 278 230 264 270 252 262 256 225 241 232 89 13 266 203 60 7 11 352 343 347 344 333 317 314 329 332 332 331 331 329 327 326 325 325 326 326 325 326 325 326 327 328 330 333 334 333 333 332 331 332 333 333 335 336 336 338 338 340 344 346 345 338 325 310 296 283 275 270 265 261 257 253 250 247 244 242
278 233 225 255 268 264 273 273 273 273 238 142 254 245 256 279 268 205 230 221 119 297 260 198 168 249 9 337 338 358 353 335 314 313 321 325 327 327 326 325 324 323 322 322 323 322 322 322 323 324 326 328 329 331 332 331 330 330 330 331 331 331 333 334 335 336 335 334 336 339 342 342 335 322 307 293 281 273 267 262 258 254 251 247 244 242
2 327 256 260 262 264 268 266 274 278 208 171 262 254 280 295 290 229 265 253 90 315 269 174 185 235 236 322 322 8 351 314 297 306 314 319 320 321 322 321 320 319 319 319 320 320 320 322 324 326 328 329 329 330 330 330 328 327 328 329 329 330 331 331 331 331 330 329 329 331 334 338 338 331 319 304 290 278 270 264 259 254 250 246 243 241
338 276 250 235 235 249 257 259 269 265 195 212 271 286 308 317 313 245 276 309 336 312 274 175 225 276 314 323 313 296 301 301 298 303 310 314 315 316 318 317 316 315 316 318 320 322 322 323 325 326 327 328 328 328 329 329 327 325 325 325 325 327 328 327 325 325 325 325 326 326 327 329 332 333 327 314 299 284 273 265 259 255 251 247 244 240
232 247 250 212 215 246 238 245 279 272 163 93 324 315 330 350 222 262 292 312 307 294 260 219 254 279 293 296 289 288 297 304 305 306 310 314 314 314 314 314 314 314 316 319 322 323 323 322 323 324 324 326 327 327 328 328 325 324 323 322 322 324 324 323 321 320 319 319 321 322 322 322 324 326 325 318 306 291 278 268 261 256 251 247 244 241
229 280 284 229 217 281 258 253 269 255 179 29 352 333 349 118 262 288 298 296 288 273 250 246 261 271 280 282 284 289 293 298 301 304 308 311 313 313 313 313 314 315 317 320 321 321 321 320 321 322 321 322 325 325 326 326 323 322 321 320 321 321 320 319 319 317 315 314 314 316 317 316 316 317 318 316 308 297 285 274 264 258 252 247 244 240
248 218 253 240 231 250 242 243 248 241 310 327 325 306 281 282 286 290 291 290 285 264 245 252 269 276 281 283 286 290 290 290 294 298 300 302 306 308 308 309 311 312 315 317 318 319 319 318 319 319 318 319 321 322 324 324 322 319 317 318 320 319 317 316 316 315 313 311 310 310 310 309 309 308 309 309 305 296 287 279 269 261 253 247 243 240
231 210 227 243 246 225 202 238 272 295 303 301 296 285 280 285 288 288 285 283 280 264 248 260 279 285 289 289 284 285 286 288 293 295 296 298 300 301 301 303 305 307 309 312 314 315 316 317 317 317 316 316 317 319 320 321 320 317 314 315 317 316 314 313 312 311 310 309 307 306 304 302 301 299 298 300 299 294 286 278 272 265 257 249 244 241
258 256 265 273 258 256 242 250 266 282 282 279 279 279 280 284 287 287 283 278 274 264 257 267 281 287 291 290 282 280 283 288 293 295 296 298 299 299 300 301 302 304 306 307 309 311 313 313 314 314 314 313 314 315 316 316 316 315 313 313 314 312 310 309 308 307 306 304 303 301 299 297 295 294 292 291 291 290 284 276 270 266 260 253 247 243
262 245 239 250 258 263 261 249 244 253 261 266 273 278 281 285 286 285 283 278 270 263 263 273 283 286 289 290 286 284 287 290 293 295 297 297 295 296 299 300 302 304 305 306 308 309 310 310 311 312 312 311 311 313 314 313 313 313 312 311 310 309 307 306 305 303 302 300 299 296 294 292 291 291 290 287 285 284 281 274 267 262 259 255 251 246
255 216 202 239 249 243 254 265 263 260 263 269 274 277 278 281 284 286 284 274 262 258 265 276 283 285 287 289 288 289 292 295 295 295 297 297 296 297 299 301 303 304 305 306 308 309 308 309 309 309 310 310 310 311 311 311 310 310 310 309 307 305 303 302 301 299 298 297 295 292 290 287 286 285 286 286 283 280 277 273 267 263 262 261 259 255
251 241 217 233 252 257 264 272 269 268 270 271 272 275 278 281 284 286 281 267 255 259 269 278 284 285 285 287 290 292 295 298 299 298 297 297 298 300 302 304 305 305 305 307 307 307 306 306 307 307 307 308 308 308 308 307 308 307 307 306 304 302 300 298 297 296 294 293 292 290 287 285 283 281 280 281 281 279 276 273 270 267 266 264 260 257
228 253 248 241 254 261 258 256 257 263 272 271 273 279 284 286 286 282 275 267 265 270 277 281 285 287 286 289 293 295 295 298 301 300 297 297 299 301 303 304 305 305 306 306 305 304 305 304 304 304 304 305 306 305 304 304 304 304 304 303 302 300 299 298 296 294 291 289 288 286 284 282 281 279 277 276 277 277 276 273 269 267 265 262 259 256
226 241 247 245 247 252 256 259 260 258 260 270 277 283 286 288 287 280 275 276 278 280 283 285 286 289 291 293 296 297 296 298 302 301 298 298 300 302 302 302 302 302 303 303 303 302 303 303 302 301 301 302 303 302 302 302 301 301 301 302 301 300 298 297 296 293 289 287 286 284 281 279 279 278 277 275 274 273 273 271 268 265 262 259 257 255